#timestamp,LO_Frequency,Hit,StdDev 
1608649495.5,286047002.9,P
1608649515.3,286047005.5,P
1608649535.2,286047003.2,N
1608649555.0,286047003.4,Y
1608649555.9,286047003.4,P
1608649575.8,286046999.8,N
1608649595.6,286046999.7,N
1608649615.4,286046999.8,N
1608649635.3,286047002.6,N
1608649655.1,286047002.3,N
1608649675.8,286047002.6,N
1608649695.7,286047002.8,N
1608649715.5,286047002.8,N
1608649735.4,286047000.3,N
1608649755.2,286047000.2,N
1608649775.0,286047002.1,N
1608649775.9,286047002.1,N
1608649795.8,286047001.8,N
1608649815.6,286047002.0,N
1608649835.5,286047005.3,Y
1608649855.3,286047008.7,P
1608649875.1,286047007.8,N
1608649895.9,286047009.7,P
1608649915.7,286047009.6,Y
1608649935.5,286047005.9,P
1608649955.4,286047005.8,P
1608649975.2,286047004.0,P
1608649995.1,286047004.0,Y
1608649996.0,286047004.0,P
1608650015.8,286046997.6,N
1608650035.6,286046995.5,N
1608650055.5,286046999.1,N
1608650075.3,286046997.0,N
1608650095.2,286046996.8,N
1608650115.9,286046999.0,N
1608650135.7,286046994.9,N
1608650155.6,286046997.5,N
1608650175.4,286046998.0,N
1608650195.2,286046995.8,N
1608650215.1,286046995.3,N
1608650216.0,286046995.3,N
1608650235.8,286046996.1,N
1608650255.7,286046996.1,N
1608650275.5,286046993.8,N
1608650295.3,286046993.3,N
1608650315.2,286046995.8,N
1608650335.0,286046995.3,N
1608650335.9,286046995.3,N
1608650355.8,286046993.7,N
1608650375.6,286046993.0,N
1608650395.4,286046990.1,Y
1608650415.3,286046996.0,P
1608650435.1,286046991.7,P
1608650455.8,286046993.9,N
1608650475.7,286046994.2,N
1608650495.5,286046993.9,Y
1608650515.4,286047003.8,P
1608650535.2,286047002.9,N
1608650555.0,286047003.3,N
1608650555.9,286047003.3,N
1608650575.8,286047002.0,N
1608650595.6,286047000.4,N
1608650615.4,286047002.8,N
1608650635.3,286047005.8,N
1608650655.1,286047005.1,N
1608650675.9,286047004.6,N
1608650695.7,286047006.0,N
1608650715.5,286047005.3,N
1608650735.4,286047004.1,N
1608650755.2,286047003.1,N
1608650775.0,286047005.5,N
1608650775.9,286047005.5,N
1608650795.8,286047003.6,N
1608650815.6,286047001.3,N
1608650835.4,286047002.2,N
1608650855.3,286047002.5,N
1608650875.1,286047000.6,N
1608650895.9,286047000.9,N
1608650915.7,286047000.7,N
1608650935.5,286046999.0,N
1608650955.4,286046999.6,N
1608650975.2,286046995.6,N
1608650995.0,286046995.9,N
1608650995.9,286046995.9,N
1608651015.8,286046995.5,N
1608651035.6,286046997.2,N
1608651055.5,286046997.1,N
1608651075.3,286046997.1,N
1608651095.1,286046996.9,N
1608651115.9,286046996.9,N
1608651135.7,286046999.3,N
1608651155.6,286046998.9,N
1608651175.4,286047001.0,N
1608651195.2,286047001.5,N
1608651215.1,286047002.6,N
1608651216.0,286047002.6,N
1608651235.8,286047000.5,N
1608651255.6,286046999.9,N
1608651275.5,286047001.3,N
1608651295.3,286047004.0,N
1608651345.2,286047004.5,E
1608651355.1,286047005.1,N
1608651375.9,286047003.5,P
1608651395.7,286047005.5,P
1608651415.5,286047003.2,Y
1608651435.4,286046997.1,P
1608651455.2,286046996.6,N
1608651475.0,286046996.7,N
1608651475.9,286046996.7,N
1608651495.8,286046997.7,N
1608651515.6,286046995.5,N
1608651535.5,286046995.4,N
1608651555.3,286046995.4,N
1608651575.1,286046994.2,N
1608651595.9,286046993.4,N
1608651615.7,286046993.8,N
1608651635.6,286046991.8,N
1608651655.4,286046994.0,N
1608651675.2,286046996.2,N
1608651695.1,286046993.8,N
1608651696.0,286046993.8,N
1608651715.8,286046995.9,N
1608651735.6,286046996.2,N
1608651755.5,286046996.1,N
1608651775.3,286046997.1,N
1608651795.2,286046999.4,N
1608651815.9,286046998.1,N
1608651835.7,286046999.3,N
1608651855.6,286046996.5,N
1608651875.4,286047000.9,N
1608651895.2,286047000.3,N
1608651915.1,286047001.2,N
1608651916.0,286047001.2,N
1608651935.8,286046999.9,N
1608651955.7,286047002.6,N
1608651975.5,286047002.7,N
1608651995.3,286047001.5,N
1608652015.2,286047000.4,N
1608652035.0,286047000.1,N
1608652035.9,286047000.1,N
1608652055.8,286047004.4,N
1608652075.6,286047006.0,N
1608652095.4,286047003.0,N
1608652115.3,286047005.3,N
1608652135.1,286047002.9,N
1608652155.8,286047004.1,N
1608652175.7,286047003.8,N
1608652195.5,286047003.9,N
1608652215.3,286047002.3,N
1608652235.2,286046998.1,N
1608652255